Find Geoskan-2

NORAD ID: 64890 Int'l Des: 2025-155 Owner: GEOSK Country: RU operational
LEOCIRCULARRETROGRADESSO

Current View

Loading 3D Globe...

About Geoskan-2

Description loading...

Upcoming Passes

Passes for default location (London). Set your location on the main map for personalized predictions.

Altitude History

Loading altitude history...

Two-Line Element Set

1 64890U 25155Q 26150.85575161 .00014201 00000-0 48159-3 0 9995
2 64890 97.4542 119.6251 0005766 209.2896 150.8022 15.30632323 78130
Epoch: May 30, 2026 • Age: 6 hours

Current Status

Altitude 483.4 km
Velocity 7.63 km/s
Sub-Earth Point 38.96°N, 179.55°W
Launch Date Jul 25, 2025
Age 0.8 years
Type other

Technical Details

Classification Payload
Mass 3.00 kg
Dry Mass 3.00 kg
Total Mass 3.00 kg
Length 0.30 m
Diameter 0.10 m
Span 0.30 m
Shape Box
Manufacturer SPUT/GEOSK
Bus Type Cubesat 3U
Phase Status In Orbit
Owner/State GEOSK/RU

Most Searched